Time,TemperatureF,DewpointF,PressureIn,WindDirection,WindDirectionDegrees,WindSpeedMPH,WindSpeedGustMPH,Humidity,HourlyPrecipIn,Conditions,Clouds,dailyrainin,SoftwareType,DateUTC
2013-04-02 00:00:00,34.2,38.3,29.81,NNW,341,0.0,9.0,49,0.00,,,0.00,meteohub,2013-04-02 04:00:00,
2013-04-02 00:05:00,34.0,38.1,29.81,North,0,0.0,11.0,49,0.00,,,0.00,meteohub,2013-04-02 04:05:00,
2013-04-02 00:10:00,34.0,38.1,29.81,NW,306,4.0,11.0,49,0.00,,,0.00,meteohub,2013-04-02 04:10:00,
2013-04-02 00:15:00,33.6,38.1,29.81,NNW,344,5.0,10.0,49,0.00,,,0.00,meteohub,2013-04-02 04:15:00,
2013-04-02 00:20:00,33.6,37.9,29.81,NNW,345,1.0,10.0,48,0.00,,,0.00,meteohub,2013-04-02 04:20:00,
2013-04-02 00:26:00,33.6,37.9,29.81,NNW,330,4.0,10.0,49,0.00,,,0.00,meteohub,2013-04-02 04:26:00,
2013-04-02 00:31:00,33.4,37.8,29.81,NW,304,3.0,10.0,49,0.00,,,0.00,meteohub,2013-04-02 04:31:00,
2013-04-02 00:36:00,33.4,37.8,29.81,NNW,333,0.0,9.0,49,0.00,,,0.00,meteohub,2013-04-02 04:36:00,
2013-04-02 00:41:00,33.3,37.9,29.82,NNW,329,4.0,9.0,49,0.00,,,0.00,meteohub,2013-04-02 04:41:00,
2013-04-02 00:46:00,33.3,37.9,29.82,NNW,337,0.0,9.0,49,0.00,,,0.00,meteohub,2013-04-02 04:46:00,
2013-04-02 00:51:00,33.1,37.9,29.83,North,355,2.0,10.0,49,0.00,,,0.00,meteohub,2013-04-02 04:51:00,
2013-04-02 00:56:00,33.1,37.9,29.82,North,0,1.0,10.0,48,0.00,,,0.00,meteohub,2013-04-02 04:56:00,
2013-04-02 01:01:00,33.1,37.8,29.83,NW,307,1.0,10.0,48,0.00,,,0.00,meteohub,2013-04-02 05:01:00,
2013-04-02 01:06:00,32.9,37.8,29.83,NW,310,2.0,10.0,49,0.00,,,0.00,meteohub,2013-04-02 05:06:00,
2013-04-02 01:11:00,32.7,37.8,29.83,NNW,331,2.0,10.0,49,0.00,,,0.00,meteohub,2013-04-02 05:11:00,
2013-04-02 01:17:00,32.7,37.8,29.83,WNW,292,4.0,11.0,48,0.00,,,0.00,meteohub,2013-04-02 05:17:00,
2013-04-02 01:22:00,32.5,37.8,29.83,NNW,344,5.0,11.0,49,0.00,,,0.00,meteohub,2013-04-02 05:22:00,
2013-04-02 01:27:00,32.7,37.8,29.83,NW,325,4.0,18.0,49,0.00,,,0.00,meteohub,2013-04-02 05:27:00,
2013-04-02 01:32:00,32.7,37.8,29.84,NNW,348,8.0,18.0,48,0.00,,,0.00,meteohub,2013-04-02 05:32:00,
2013-04-02 01:37:00,32.7,37.8,29.83,NNW,329,3.0,18.0,47,0.00,,,0.00,meteohub,2013-04-02 05:37:00,
2013-04-02 01:42:00,32.7,37.6,29.83,WNW,290,5.0,13.0,47,0.00,,,0.00,meteohub,2013-04-02 05:42:00,
2013-04-02 01:47:00,32.5,37.8,29.83,WNW,290,2.0,13.0,47,0.00,,,0.00,meteohub,2013-04-02 05:47:00,
2013-04-02 01:52:00,32.5,37.8,29.83,WNW,295,6.0,13.0,47,0.00,,,0.00,meteohub,2013-04-02 05:52:00,
2013-04-02 01:57:00,32.5,37.8,29.83,NW,317,4.0,12.0,46,0.00,,,0.00,meteohub,2013-04-02 05:57:00,
2013-04-02 02:02:00,32.5,37.9,29.83,WNW,288,5.0,11.0,47,0.00,,,0.00,meteohub,2013-04-02 06:02:00,
2013-04-02 02:07:00,32.4,37.9,29.83,NNW,342,4.0,12.0,46,0.00,,,0.00,meteohub,2013-04-02 06:07:00,
2013-04-02 02:12:00,32.4,37.8,29.83,WNW,293,4.0,12.0,47,0.00,,,0.00,meteohub,2013-04-02 06:12:00,
2013-04-02 02:17:00,32.2,37.8,29.83,NNW,338,1.0,8.0,47,0.00,,,0.00,meteohub,2013-04-02 06:17:00,
2013-04-02 02:22:00,32.2,37.8,29.83,WNW,288,1.0,10.0,47,0.00,,,0.00,meteohub,2013-04-02 06:22:00,
2013-04-02 02:27:00,31.8,37.8,29.82,NNW,338,5.0,10.0,47,0.00,,,0.00,meteohub,2013-04-02 06:27:00,
2013-04-02 02:32:00,31.8,37.6,29.83,NW,307,2.0,8.0,47,0.00,,,0.00,meteohub,2013-04-02 06:32:00,
2013-04-02 02:37:00,31.8,37.6,29.82,NNW,334,3.0,9.0,47,0.00,,,0.00,meteohub,2013-04-02 06:37:00,
2013-04-02 02:42:00,31.6,37.6,29.82,NW,323,1.0,9.0,48,0.00,,,0.00,meteohub,2013-04-02 06:42:00,
2013-04-02 02:47:00,31.6,37.6,29.82,NW,320,5.0,9.0,48,0.00,,,0.00,meteohub,2013-04-02 06:47:00,
2013-04-02 02:52:00,31.5,37.8,29.82,West,265,4.0,7.0,48,0.00,,,0.00,meteohub,2013-04-02 06:52:00,
2013-04-02 02:57:00,31.5,37.8,29.83,WSW,253,0.0,7.0,49,0.00,,,0.00,meteohub,2013-04-02 06:57:00,
2013-04-02 03:02:00,31.3,37.8,29.83,North,5,5.0,5.0,49,0.00,,,0.00,meteohub,2013-04-02 07:02:00,
2013-04-02 03:07:00,31.5,37.6,29.83,NW,314,2.0,11.0,48,0.00,,,0.00,meteohub,2013-04-02 07:07:00,
2013-04-02 03:12:00,31.5,37.6,29.83,WNW,299,5.0,11.0,49,0.00,,,0.00,meteohub,2013-04-02 07:12:00,
2013-04-02 03:17:00,31.3,37.6,29.83,NNW,329,2.0,11.0,49,0.00,,,0.00,meteohub,2013-04-02 07:17:00,
2013-04-02 03:22:00,31.1,37.6,29.83,West,273,5.0,12.0,50,0.00,,,0.00,meteohub,2013-04-02 07:22:00,
2013-04-02 03:27:00,30.9,37.6,29.83,North,350,3.0,12.0,50,0.00,,,0.00,meteohub,2013-04-02 07:27:00,
2013-04-02 03:32:00,30.9,37.6,29.83,NW,313,2.0,12.0,50,0.00,,,0.00,meteohub,2013-04-02 07:32:00,
2013-04-02 03:37:00,30.9,37.6,29.83,North,0,1.0,10.0,50,0.00,,,0.00,meteohub,2013-04-02 07:37:00,
2013-04-02 03:43:00,30.9,37.6,29.84,WNW,294,0.0,10.0,50,0.00,,,0.00,meteohub,2013-04-02 07:43:00,
2013-04-02 03:48:00,30.9,37.6,29.84,NNW,342,4.0,10.0,50,0.00,,,0.00,meteohub,2013-04-02 07:48:00,
2013-04-02 03:53:00,30.7,38.5,29.83,NNW,333,0.0,7.0,51,0.00,,,0.00,meteohub,2013-04-02 07:53:00,
2013-04-02 03:58:00,30.7,38.7,29.84,NNW,345,3.0,7.0,51,0.00,,,0.00,meteohub,2013-04-02 07:58:00,
2013-04-02 04:03:00,30.6,38.7,29.83,NNW,327,0.0,6.0,52,0.00,,,0.00,meteohub,2013-04-02 08:03:00,
2013-04-02 04:08:00,30.4,38.7,29.83,NW,323,4.0,5.0,52,0.00,,,0.00,meteohub,2013-04-02 08:08:00,
2013-04-02 04:13:00,30.6,38.7,29.83,NW,311,2.0,9.0,52,0.00,,,0.00,meteohub,2013-04-02 08:13:00,
2013-04-02 04:18:00,30.4,38.7,29.83,NW,316,2.0,9.0,52,0.00,,,0.00,meteohub,2013-04-02 08:18:00,
2013-04-02 04:23:00,30.4,38.5,29.84,NW,307,4.0,9.0,53,0.00,,,0.00,meteohub,2013-04-02 08:23:00,
2013-04-02 04:28:00,30.2,38.5,29.84,NW,323,2.0,7.0,53,0.00,,,0.00,meteohub,2013-04-02 08:28:00,
2013-04-02 04:33:00,30.0,37.6,29.84,NW,305,1.0,7.0,53,0.00,,,0.00,meteohub,2013-04-02 08:33:00,
2013-04-02 04:38:00,30.0,37.6,29.84,NW,311,2.0,7.0,53,0.00,,,0.00,meteohub,2013-04-02 08:38:00,
2013-04-02 04:43:00,29.8,38.5,29.84,NNW,327,1.0,7.0,54,0.00,,,0.00,meteohub,2013-04-02 08:43:00,
2013-04-02 04:48:00,29.8,38.5,29.84,NNW,330,2.0,7.0,55,0.00,,,0.00,meteohub,2013-04-02 08:48:00,
2013-04-02 04:53:00,29.8,38.5,29.84,WNW,295,5.0,5.0,55,0.00,,,0.00,meteohub,2013-04-02 08:53:00,
2013-04-02 04:58:00,29.8,38.5,29.84,NNW,333,6.0,8.0,56,0.00,,,0.00,meteohub,2013-04-02 08:58:00,
2013-04-02 05:03:00,29.7,38.1,29.84,North,9,4.0,8.0,56,0.00,,,0.00,meteohub,2013-04-02 09:03:00,
2013-04-02 05:08:00,29.8,38.1,29.84,NW,321,2.0,8.0,56,0.00,,,0.00,meteohub,2013-04-02 09:08:00,
2013-04-02 05:13:00,29.8,37.0,29.84,NW,315,4.0,9.0,56,0.00,,,0.00,meteohub,2013-04-02 09:13:00,
2013-04-02 05:18:00,29.8,37.9,29.84,NW,316,0.0,9.0,56,0.00,,,0.00,meteohub,2013-04-02 09:18:00,
2013-04-02 05:23:00,29.7,37.9,29.84,NW,309,1.0,9.0,56,0.00,,,0.00,meteohub,2013-04-02 09:23:00,
2013-04-02 05:28:00,29.7,37.9,29.85,NW,309,2.0,6.0,56,0.00,,,0.00,meteohub,2013-04-02 09:28:00,
2013-04-02 05:33:00,29.7,37.9,29.85,NW,309,0.0,5.0,57,0.00,,,0.00,meteohub,2013-04-02 09:33:00,
2013-04-02 05:38:00,29.5,37.9,29.85,NW,309,0.0,5.0,57,0.00,,,0.00,meteohub,2013-04-02 09:38:00,
2013-04-02 05:44:00,29.1,38.1,29.85,NW,309,0.0,2.0,58,0.00,,,0.00,meteohub,2013-04-02 09:44:00,
2013-04-02 05:49:00,28.9,38.5,29.85,NW,309,0.0,1.0,58,0.00,,,0.00,meteohub,2013-04-02 09:49:00,
2013-04-02 05:54:00,28.8,38.5,29.86,NW,309,0.0,1.0,58,0.00,,,0.00,meteohub,2013-04-02 09:54:00,
2013-04-02 05:59:00,28.6,38.5,29.86,NW,309,0.0,0.0,59,0.00,,,0.00,meteohub,2013-04-02 09:59:00,
2013-04-02 06:04:00,28.4,38.5,29.86,NW,309,0.0,0.0,60,0.00,,,0.00,meteohub,2013-04-02 10:04:00,
2013-04-02 06:09:00,28.0,38.5,29.86,NW,309,0.0,0.0,61,0.00,,,0.00,meteohub,2013-04-02 10:09:00,
2013-04-02 06:14:00,27.9,38.5,29.86,NW,309,0.0,0.0,62,0.00,,,0.00,meteohub,2013-04-02 10:14:00,
2013-04-02 06:19:00,27.9,38.5,29.86,NW,309,0.0,0.0,64,0.00,,,0.00,meteohub,2013-04-02 10:19:00,
2013-04-02 06:24:00,27.7,38.1,29.86,NW,309,0.0,0.0,64,0.00,,,0.00,meteohub,2013-04-02 10:24:00,
2013-04-02 06:29:00,27.5,38.1,29.86,NW,309,0.0,0.0,65,0.00,,,0.00,meteohub,2013-04-02 10:29:00,
2013-04-02 06:34:00,27.5,37.9,29.86,NW,309,0.0,0.0,67,0.00,,,0.00,meteohub,2013-04-02 10:34:00,
2013-04-02 06:39:00,27.3,37.9,29.87,NW,309,0.0,0.0,67,0.00,,,0.00,meteohub,2013-04-02 10:39:00,
2013-04-02 06:44:00,27.3,38.1,29.87,NW,309,0.0,0.0,67,0.00,,,0.00,meteohub,2013-04-02 10:44:00,
2013-04-02 06:49:00,27.3,38.5,29.87,NW,309,0.0,0.0,67,0.00,,,0.00,meteohub,2013-04-02 10:49:00,
2013-04-02 06:54:00,27.3,38.5,29.87,NW,309,0.0,0.0,68,0.00,,,0.00,meteohub,2013-04-02 10:54:00,
2013-04-02 06:59:00,27.7,38.1,29.88,NW,309,0.0,0.0,68,0.00,,,0.00,meteohub,2013-04-02 10:59:00,
2013-04-02 07:04:00,27.9,38.1,29.88,NW,309,0.0,0.0,67,0.00,,,0.00,meteohub,2013-04-02 11:04:00,
2013-04-02 07:09:00,28.2,38.5,29.88,WNW,288,2.0,2.0,66,0.00,,,0.00,meteohub,2013-04-02 11:09:00,
2013-04-02 07:14:00,28.6,38.5,29.88,WNW,289,1.0,2.0,66,0.00,,,0.00,meteohub,2013-04-02 11:14:00,
2013-04-02 07:19:00,28.9,38.5,29.88,WNW,290,0.0,3.0,66,0.00,,,0.00,meteohub,2013-04-02 11:19:00,
2013-04-02 07:24:00,29.5,38.1,29.88,WNW,290,2.0,4.0,65,0.00,,,0.00,meteohub,2013-04-02 11:24:00,
2013-04-02 07:29:00,29.8,38.1,29.88,WNW,290,1.0,4.0,64,0.00,,,0.00,meteohub,2013-04-02 11:29:00,
2013-04-02 07:34:00,30.0,38.1,29.88,WNW,290,1.0,4.0,63,0.00,,,0.00,meteohub,2013-04-02 11:34:00,
2013-04-02 07:39:00,30.4,37.9,29.88,WNW,290,2.0,4.0,63,0.00,,,0.00,meteohub,2013-04-02 11:39:00,
2013-04-02 07:44:00,30.6,37.9,29.89,NNW,330,1.0,3.0,62,0.00,,,0.00,meteohub,2013-04-02 11:44:00,
2013-04-02 07:49:00,30.9,37.9,29.89,NNW,338,2.0,9.0,63,0.00,,,0.00,meteohub,2013-04-02 11:49:00,
2013-04-02 07:54:00,31.3,38.1,29.89,NW,321,2.0,9.0,61,0.00,,,0.00,meteohub,2013-04-02 11:54:00,
2013-04-02 07:59:00,31.5,38.1,29.89,North,11,1.0,9.0,61,0.00,,,0.00,meteohub,2013-04-02 11:59:00,
2013-04-02 08:04:00,31.5,38.1,29.89,North,355,5.0,8.0,60,0.00,,,0.00,meteohub,2013-04-02 12:04:00,
2013-04-02 08:09:00,31.6,38.1,29.89,NNW,340,5.0,8.0,59,0.00,,,0.00,meteohub,2013-04-02 12:09:00,
2013-04-02 08:14:00,31.5,37.9,29.89,West,275,9.0,11.0,59,0.00,,,0.00,meteohub,2013-04-02 12:14:00,
2013-04-02 08:19:00,31.6,37.9,29.89,NW,305,7.0,11.0,59,0.00,,,0.00,meteohub,2013-04-02 12:19:00,
2013-04-02 08:24:00,32.2,37.9,29.89,NW,320,6.0,11.0,59,0.00,,,0.00,meteohub,2013-04-02 12:24:00,
2013-04-02 08:30:00,32.4,37.9,29.89,North,0,4.0,9.0,58,0.00,,,0.00,meteohub,2013-04-02 12:30:00,
2013-04-02 08:35:00,32.4,38.1,29.89,NNW,340,5.0,9.0,58,0.00,,,0.00,meteohub,2013-04-02 12:35:00,
2013-04-02 08:40:00,32.4,38.1,29.89,NW,322,8.0,9.0,58,0.00,,,0.00,meteohub,2013-04-02 12:40:00,
2013-04-02 08:45:00,32.2,38.1,29.89,NNW,331,2.0,14.0,58,0.00,,,0.00,meteohub,2013-04-02 12:45:00,
2013-04-02 08:50:00,32.5,38.1,29.89,NW,315,5.0,14.0,59,0.00,,,0.00,meteohub,2013-04-02 12:50:00,
2013-04-02 08:55:00,33.1,38.1,29.90,WNW,302,8.0,13.0,57,0.00,,,0.00,meteohub,2013-04-02 12:55:00,
2013-04-02 09:00:00,33.1,38.1,29.90,West,274,12.0,13.0,57,0.00,,,0.00,meteohub,2013-04-02 13:00:00,
2013-04-02 09:05:00,33.3,38.1,29.89,WNW,290,6.0,13.0,57,0.00,,,0.00,meteohub,2013-04-02 13:05:00,
2013-04-02 09:10:00,33.4,38.1,29.89,NW,317,2.0,13.0,57,0.00,,,0.00,meteohub,2013-04-02 13:10:00,
2013-04-02 09:15:00,33.3,38.1,29.89,NW,308,4.0,13.0,56,0.00,,,0.00,meteohub,2013-04-02 13:15:00,
2013-04-02 09:20:00,33.1,38.5,29.89,NNW,333,2.0,13.0,55,0.00,,,0.00,meteohub,2013-04-02 13:20:00,
2013-04-02 09:25:00,32.9,38.5,29.89,NW,309,0.0,13.0,55,0.00,,,0.00,meteohub,2013-04-02 13:25:00,
2013-04-02 09:30:00,33.1,38.5,29.89,NNW,330,4.0,13.0,57,0.00,,,0.00,meteohub,2013-04-02 13:30:00,
2013-04-02 09:35:00,33.3,38.5,29.89,NNW,331,5.0,10.0,55,0.00,,,0.00,meteohub,2013-04-02 13:35:00,
2013-04-02 09:40:00,32.9,38.1,29.89,NW,325,3.0,11.0,52,0.00,,,0.00,meteohub,2013-04-02 13:40:00,
2013-04-02 09:45:00,33.3,38.1,29.90,North,0,2.0,11.0,52,0.00,,,0.00,meteohub,2013-04-02 13:45:00,
2013-04-02 09:50:00,33.3,38.1,29.89,North,0,4.0,11.0,51,0.00,,,0.00,meteohub,2013-04-02 13:50:00,
2013-04-02 09:55:00,33.4,38.1,29.89,WNW,294,4.0,11.0,51,0.00,,,0.00,meteohub,2013-04-02 13:55:00,
2013-04-02 10:00:00,33.4,38.5,29.89,NNE,14,1.0,11.0,50,0.00,,,0.00,meteohub,2013-04-02 14:00:00,
2013-04-02 10:05:00,33.4,38.5,29.89,NNW,346,5.0,11.0,50,0.00,,,0.00,meteohub,2013-04-02 14:05:00,
2013-04-02 10:10:00,33.4,38.5,29.89,NNE,17,5.0,11.0,50,0.00,,,0.00,meteohub,2013-04-02 14:10:00,
2013-04-02 10:15:00,33.6,38.5,29.89,NNW,343,6.0,11.0,50,0.00,,,0.00,meteohub,2013-04-02 14:15:00,
2013-04-02 10:20:00,33.8,38.5,29.89,North,0,2.0,11.0,51,0.00,,,0.00,meteohub,2013-04-02 14:20:00,
2013-04-02 10:25:00,33.8,38.5,29.89,NW,321,2.0,9.0,51,0.00,,,0.00,meteohub,2013-04-02 14:25:00,
2013-04-02 10:30:00,33.8,38.1,29.89,NNW,342,5.0,10.0,52,0.00,,,0.00,meteohub,2013-04-02 14:30:00,
2013-04-02 10:35:00,34.2,38.1,29.89,WNW,283,3.0,11.0,52,0.00,,,0.00,meteohub,2013-04-02 14:35:00,
2013-04-02 10:40:00,34.3,38.5,29.89,West,268,1.0,11.0,52,0.00,,,0.00,meteohub,2013-04-02 14:40:00,
2013-04-02 10:45:00,34.3,38.5,29.89,WNW,286,8.0,11.0,52,0.00,,,0.00,meteohub,2013-04-02 14:45:00,
2013-04-02 10:50:00,35.1,38.5,29.89,NW,318,10.0,11.0,50,0.00,,,0.00,meteohub,2013-04-02 14:50:00,
2013-04-02 10:55:00,35.6,38.5,29.89,NW,305,6.0,11.0,50,0.00,,,0.00,meteohub,2013-04-02 14:55:00,
2013-04-02 11:00:00,36.1,38.1,29.89,NW,305,7.0,11.0,50,0.00,,,0.00,meteohub,2013-04-02 15:00:00,
2013-04-02 11:05:00,35.8,38.1,29.89,NNW,347,5.0,11.0,48,0.00,,,0.00,meteohub,2013-04-02 15:05:00,
2013-04-02 11:10:00,35.6,38.1,29.89,NNE,19,5.0,11.0,49,0.00,,,0.00,meteohub,2013-04-02 15:10:00,
2013-04-02 11:15:00,35.2,38.1,29.89,NNE,15,6.0,12.0,50,0.00,,,0.00,meteohub,2013-04-02 15:15:00,
2013-04-02 11:20:00,35.2,37.9,29.89,NNW,338,8.0,12.0,50,0.00,,,0.00,meteohub,2013-04-02 15:20:00,
2013-04-02 11:25:00,34.9,38.1,29.89,NNW,329,4.0,12.0,50,0.00,,,0.00,meteohub,2013-04-02 15:25:00,
2013-04-02 11:30:00,34.7,38.1,29.89,West,272,5.0,13.0,49,0.00,,,0.00,meteohub,2013-04-02 15:30:00,
2013-04-02 11:35:00,35.1,38.1,29.89,WNW,298,0.0,13.0,50,0.00,,,0.00,meteohub,2013-04-02 15:35:00,
2013-04-02 11:40:00,34.9,38.1,29.89,North,355,7.0,13.0,52,0.00,,,0.00,meteohub,2013-04-02 15:40:00,
2013-04-02 11:45:00,35.2,38.1,29.89,NNW,333,3.0,11.0,53,0.00,,,0.00,meteohub,2013-04-02 15:45:00,
2013-04-02 11:51:00,35.2,38.1,29.88,NNW,337,6.0,11.0,52,0.00,,,0.00,meteohub,2013-04-02 15:51:00,
2013-04-02 11:56:00,35.1,37.2,29.88,NW,312,5.0,11.0,53,0.00,,,0.00,meteohub,2013-04-02 15:56:00,
2013-04-02 12:01:00,36.1,37.2,29.87,NW,309,7.0,11.0,51,0.00,,,0.00,meteohub,2013-04-02 16:01:00,
2013-04-02 12:06:00,36.1,37.0,29.88,NW,326,9.0,18.0,48,0.00,,,0.00,meteohub,2013-04-02 16:06:00,
2013-04-02 12:12:00,36.1,37.0,29.87,NNW,333,7.0,18.0,49,0.00,,,0.00,meteohub,2013-04-02 16:12:00,
2013-04-02 12:17:00,36.1,37.2,29.88,NNW,342,4.0,19.0,49,0.00,,,0.00,meteohub,2013-04-02 16:17:00,
2013-04-02 12:22:00,36.1,38.1,29.87,NNW,333,5.0,19.0,45,0.00,,,0.00,meteohub,2013-04-02 16:22:00,
2013-04-02 12:27:00,36.0,38.5,29.87,North,349,3.0,19.0,46,0.00,,,0.00,meteohub,2013-04-02 16:27:00,
2013-04-02 12:32:00,36.3,38.5,29.87,WNW,300,5.0,15.0,48,0.00,,,0.00,meteohub,2013-04-02 16:32:00,
2013-04-02 12:37:00,35.8,37.6,29.87,North,355,7.0,19.0,47,0.00,,,0.00,meteohub,2013-04-02 16:37:00,
2013-04-02 12:42:00,35.4,37.6,29.87,NNW,328,6.0,19.0,48,0.00,,,0.00,meteohub,2013-04-02 16:42:00,
2013-04-02 12:47:00,36.0,37.6,29.86,NNW,344,6.0,19.0,48,0.00,,,0.00,meteohub,2013-04-02 16:47:00,
2013-04-02 12:52:00,36.0,37.6,29.86,North,355,4.0,19.0,46,0.00,,,0.00,meteohub,2013-04-02 16:52:00,
2013-04-02 12:57:00,37.4,37.6,29.86,North,0,3.0,19.0,48,0.00,,,0.00,meteohub,2013-04-02 16:57:00,
2013-04-02 13:02:00,37.2,37.6,29.86,NNW,344,6.0,19.0,45,0.00,,,0.00,meteohub,2013-04-02 17:02:00,
2013-04-02 13:08:00,37.8,37.6,29.86,NW,318,8.0,12.0,47,0.00,,,0.00,meteohub,2013-04-02 17:08:00,
2013-04-02 13:13:00,37.8,37.6,29.86,NNW,344,10.0,13.0,46,0.00,,,0.00,meteohub,2013-04-02 17:13:00,
2013-04-02 13:18:00,37.0,38.7,29.86,NNE,19,8.0,16.0,44,0.00,,,0.00,meteohub,2013-04-02 17:18:00,
2013-04-02 13:23:00,37.0,39.0,29.86,WNW,301,3.0,16.0,44,0.00,,,0.00,meteohub,2013-04-02 17:23:00,
2013-04-02 13:28:00,37.8,39.2,29.86,North,0,6.0,16.0,42,0.00,,,0.00,meteohub,2013-04-02 17:28:00,
2013-04-02 13:33:00,37.9,39.4,29.86,East,80,5.0,12.0,43,0.00,,,0.00,meteohub,2013-04-02 17:33:00,
2013-04-02 13:38:00,37.0,39.4,29.86,North,355,2.0,12.0,41,0.00,,,0.00,meteohub,2013-04-02 17:38:00,
2013-04-02 13:43:00,36.9,39.6,29.86,NW,315,11.0,18.0,44,0.00,,,0.00,meteohub,2013-04-02 17:43:00,
2013-04-02 13:48:00,37.6,38.7,29.86,North,351,8.0,18.0,45,0.00,,,0.00,meteohub,2013-04-02 17:48:00,
2013-04-02 13:53:00,37.0,38.8,29.86,NNW,331,7.0,22.0,45,0.00,,,0.00,meteohub,2013-04-02 17:53:00,
2013-04-02 13:58:00,37.0,38.8,29.86,NNW,333,6.0,22.0,47,0.00,,,0.00,meteohub,2013-04-02 17:58:00,
2013-04-02 14:03:00,37.2,39.0,29.85,NW,317,7.0,15.0,46,0.00,,,0.00,meteohub,2013-04-02 18:03:00,
2013-04-02 14:08:00,37.4,39.2,29.85,NNE,16,5.0,15.0,46,0.00,,,0.00,meteohub,2013-04-02 18:08:00,
2013-04-02 14:13:00,38.1,39.2,29.85,NW,310,3.0,14.0,44,0.00,,,0.00,meteohub,2013-04-02 18:13:00,
2013-04-02 14:18:00,38.7,39.2,29.85,North,0,4.0,21.0,44,0.00,,,0.00,meteohub,2013-04-02 18:18:00,
2013-04-02 14:23:00,38.1,39.2,29.86,NW,319,5.0,21.0,45,0.00,,,0.00,meteohub,2013-04-02 18:23:00,
2013-04-02 14:28:00,37.9,39.2,29.85,NNW,330,4.0,21.0,46,0.00,,,0.00,meteohub,2013-04-02 18:28:00,
2013-04-02 14:34:00,38.5,38.3,29.85,NW,304,5.0,18.0,44,0.00,,,0.00,meteohub,2013-04-02 18:34:00,
2013-04-02 14:39:00,38.5,39.2,29.85,West,279,5.0,18.0,42,0.00,,,0.00,meteohub,2013-04-02 18:39:00,
2013-04-02 14:44:00,37.9,39.6,29.85,NNW,339,6.0,18.0,43,0.00,,,0.00,meteohub,2013-04-02 18:44:00,
2013-04-02 14:49:00,38.1,39.6,29.85,NNW,336,5.0,13.0,44,0.00,,,0.00,meteohub,2013-04-02 18:49:00,
2013-04-02 14:54:00,38.7,38.7,29.85,WNW,292,5.0,13.0,42,0.00,,,0.00,meteohub,2013-04-02 18:54:00,
2013-04-02 14:59:00,38.3,38.7,29.84,WNW,303,10.0,16.0,42,0.00,,,0.00,meteohub,2013-04-02 18:59:00,
2013-04-02 15:04:00,38.8,38.7,29.85,NNW,329,5.0,16.0,42,0.00,,,0.00,meteohub,2013-04-02 19:04:00,
2013-04-02 15:09:00,38.5,38.7,29.85,NW,311,3.0,16.0,42,0.00,,,0.00,meteohub,2013-04-02 19:09:00,
2013-04-02 15:14:00,38.7,38.7,29.85,NW,325,7.0,15.0,42,0.00,,,0.00,meteohub,2013-04-02 19:14:00,
2013-04-02 15:19:00,38.5,38.7,29.85,North,0,4.0,15.0,40,0.00,,,0.00,meteohub,2013-04-02 19:19:00,
2013-04-02 15:24:00,38.5,38.7,29.85,NNW,341,3.0,15.0,41,0.00,,,0.00,meteohub,2013-04-02 19:24:00,
2013-04-02 15:29:00,38.7,38.7,29.84,NNW,334,5.0,14.0,43,0.00,,,0.00,meteohub,2013-04-02 19:29:00,
2013-04-02 15:35:00,38.7,38.8,29.84,SE,138,4.0,14.0,43,0.00,,,0.00,meteohub,2013-04-02 19:35:00,
2013-04-02 15:40:00,38.5,38.8,29.84,NE,38,6.0,16.0,43,0.00,,,0.00,meteohub,2013-04-02 19:40:00,
2013-04-02 15:45:00,37.9,38.8,29.85,NW,322,7.0,15.0,44,0.00,,,0.00,meteohub,2013-04-02 19:45:00,
2013-04-02 15:50:00,38.5,38.8,29.85,North,5,7.0,14.0,43,0.00,,,0.00,meteohub,2013-04-02 19:50:00,
2013-04-02 15:55:00,38.8,38.8,29.84,WSW,252,8.0,18.0,39,0.00,,,0.00,meteohub,2013-04-02 19:55:00,
2013-04-02 16:00:00,38.5,37.9,29.84,WNW,294,14.0,27.0,39,0.00,,,0.00,meteohub,2013-04-02 20:00:00,
2013-04-02 16:05:00,38.1,37.9,29.84,NNW,332,8.0,27.0,39,0.00,,,0.00,meteohub,2013-04-02 20:05:00,
2013-04-02 16:10:00,37.8,36.9,29.85,North,5,8.0,27.0,40,0.00,,,0.00,meteohub,2013-04-02 20:10:00,
2013-04-02 16:15:00,37.6,37.9,29.84,NE,44,7.0,16.0,39,0.00,,,0.00,meteohub,2013-04-02 20:15:00,
2013-04-02 16:20:00,37.2,37.9,29.84,NNW,327,4.0,22.0,38,0.00,,,0.00,meteohub,2013-04-02 20:20:00,
2013-04-02 16:25:00,37.0,38.1,29.85,West,280,7.0,22.0,39,0.00,,,0.00,meteohub,2013-04-02 20:25:00,
2013-04-02 16:31:00,37.0,38.1,29.85,NNW,331,7.0,22.0,40,0.00,,,0.00,meteohub,2013-04-02 20:31:00,
2013-04-02 16:36:00,37.6,37.9,29.85,NNW,346,10.0,20.0,39,0.00,,,0.00,meteohub,2013-04-02 20:36:00,
2013-04-02 16:41:00,37.4,37.9,29.85,WNW,298,6.0,20.0,39,0.00,,,0.00,meteohub,2013-04-02 20:41:00,
2013-04-02 16:46:00,37.4,37.0,29.85,West,272,9.0,20.0,40,0.00,,,0.00,meteohub,2013-04-02 20:46:00,
2013-04-02 16:51:00,37.2,37.0,29.85,North,9,7.0,19.0,40,0.00,,,0.00,meteohub,2013-04-02 20:51:00,
2013-04-02 16:57:00,37.0,36.9,29.86,NNW,344,8.0,19.0,41,0.00,,,0.00,meteohub,2013-04-02 20:57:00,
2013-04-02 17:02:00,37.2,36.9,29.85,North,0,8.0,19.0,41,0.00,,,0.00,meteohub,2013-04-02 21:02:00,
2013-04-02 17:07:00,37.6,37.0,29.85,NNW,327,6.0,15.0,40,0.00,,,0.00,meteohub,2013-04-02 21:07:00,
2013-04-02 17:12:00,38.1,38.1,29.85,NNW,331,3.0,15.0,40,0.00,,,0.00,meteohub,2013-04-02 21:12:00,
2013-04-02 17:17:00,37.9,38.1,29.86,North,355,9.0,13.0,37,0.00,,,0.00,meteohub,2013-04-02 21:17:00,
2013-04-02 17:22:00,37.8,38.1,29.86,NNW,342,1.0,14.0,38,0.00,,,0.00,meteohub,2013-04-02 21:22:00,
2013-04-02 17:27:00,37.9,37.2,29.87,WNW,300,8.0,14.0,38,0.00,,,0.00,meteohub,2013-04-02 21:27:00,
2013-04-02 17:32:00,37.2,37.2,29.87,NNE,19,5.0,13.0,39,0.00,,,0.00,meteohub,2013-04-02 21:32:00,
2013-04-02 17:37:00,36.7,37.2,29.87,North,349,6.0,16.0,40,0.00,,,0.00,meteohub,2013-04-02 21:37:00,
2013-04-02 17:42:00,36.3,37.2,29.87,North,355,5.0,16.0,42,0.00,,,0.00,meteohub,2013-04-02 21:42:00,
2013-04-02 17:47:00,36.1,37.2,29.87,NW,322,7.0,16.0,42,0.00,,,0.00,meteohub,2013-04-02 21:47:00,
2013-04-02 17:52:00,36.0,37.2,29.87,North,355,5.0,14.0,42,0.00,,,0.00,meteohub,2013-04-02 21:52:00,
2013-04-02 17:57:00,36.1,38.1,29.87,NW,319,10.0,14.0,43,0.00,,,0.00,meteohub,2013-04-02 21:57:00,
2013-04-02 18:02:00,36.3,38.3,29.88,NNW,341,5.0,14.0,43,0.00,,,0.00,meteohub,2013-04-02 22:02:00,
2013-04-02 18:07:00,36.3,38.5,29.88,North,0,6.0,13.0,41,0.00,,,0.00,meteohub,2013-04-02 22:07:00,
2013-04-02 18:12:00,35.8,38.5,29.88,NW,309,6.0,13.0,40,0.00,,,0.00,meteohub,2013-04-02 22:12:00,
2013-04-02 18:17:00,35.6,38.5,29.88,NNW,329,8.0,11.0,41,0.00,,,0.00,meteohub,2013-04-02 22:17:00,
2013-04-02 18:22:00,35.4,38.5,29.89,NNW,338,9.0,14.0,41,0.00,,,0.00,meteohub,2013-04-02 22:22:00,
2013-04-02 18:28:00,35.4,38.5,29.89,NW,311,5.0,21.0,41,0.00,,,0.00,meteohub,2013-04-02 22:28:00,
2013-04-02 18:33:00,35.2,38.3,29.89,WNW,285,6.0,23.0,42,0.00,,,0.00,meteohub,2013-04-02 22:33:00,
2013-04-02 18:38:00,35.2,38.3,29.89,NNW,345,4.0,23.0,42,0.00,,,0.00,meteohub,2013-04-02 22:38:00,
2013-04-02 18:44:00,35.1,38.3,29.90,NNW,348,5.0,23.0,42,0.00,,,0.00,meteohub,2013-04-02 22:44:00,
2013-04-02 18:49:00,35.1,38.3,29.90,NW,310,6.0,13.0,42,0.00,,,0.00,meteohub,2013-04-02 22:49:00,
2013-04-02 18:54:00,35.1,38.5,29.90,WNW,292,8.0,9.0,42,0.00,,,0.00,meteohub,2013-04-02 22:54:00,
2013-04-02 18:59:00,35.1,38.5,29.91,NW,318,2.0,10.0,42,0.00,,,0.00,meteohub,2013-04-02 22:59:00,
2013-04-02 19:04:00,34.9,38.5,29.91,NNW,336,7.0,10.0,42,0.00,,,0.00,meteohub,2013-04-02 23:04:00,
2013-04-02 19:09:00,34.9,38.3,29.91,NNW,348,4.0,10.0,42,0.00,,,0.00,meteohub,2013-04-02 23:09:00,
2013-04-02 19:14:00,34.9,37.2,29.91,North,9,6.0,13.0,43,0.00,,,0.00,meteohub,2013-04-02 23:14:00,
2013-04-02 19:19:00,34.9,37.2,29.91,NNW,336,3.0,14.0,43,0.00,,,0.00,meteohub,2013-04-02 23:19:00,
2013-04-02 19:24:00,34.7,37.2,29.91,NNW,342,5.0,14.0,43,0.00,,,0.00,meteohub,2013-04-02 23:24:00,
2013-04-02 19:29:00,34.3,37.2,29.91,West,273,6.0,14.0,44,0.00,,,0.00,meteohub,2013-04-02 23:29:00,
2013-04-02 19:34:00,34.3,37.0,29.91,West,267,6.0,14.0,45,0.00,,,0.00,meteohub,2013-04-02 23:34:00,
2013-04-02 19:39:00,34.3,37.2,29.91,NNW,344,7.0,14.0,46,0.00,,,0.00,meteohub,2013-04-02 23:39:00,
2013-04-02 19:44:00,34.3,37.2,29.91,WNW,288,6.0,12.0,46,0.00,,,0.00,meteohub,2013-04-02 23:44:00,
2013-04-02 19:49:00,34.2,37.2,29.92,WNW,300,2.0,24.0,46,0.00,,,0.00,meteohub,2013-04-02 23:49:00,
2013-04-02 19:54:00,34.2,38.5,29.92,NNW,340,3.0,24.0,46,0.00,,,0.00,meteohub,2013-04-02 23:54:00,
2013-04-02 19:59:00,34.2,37.4,29.92,SSW,197,6.0,15.0,46,0.00,,,0.00,meteohub,2013-04-02 23:59:00,
2013-04-02 20:04:00,34.3,37.4,29.92,NNW,331,4.0,15.0,47,0.00,,,0.00,meteohub,2013-04-03 00:04:00,
2013-04-02 20:09:00,34.2,37.2,29.92,NW,321,5.0,15.0,47,0.00,,,0.00,meteohub,2013-04-03 00:09:00,
2013-04-02 20:15:00,34.2,37.2,29.92,NW,312,5.0,11.0,46,0.00,,,0.00,meteohub,2013-04-03 00:15:00,
2013-04-02 20:20:00,34.0,37.2,29.93,NNW,341,5.0,12.0,47,0.00,,,0.00,meteohub,2013-04-03 00:20:00,
2013-04-02 20:25:00,33.8,37.2,29.93,North,355,2.0,12.0,48,0.00,,,0.00,meteohub,2013-04-03 00:25:00,
2013-04-02 20:30:00,33.6,37.2,29.94,NNW,334,4.0,13.0,48,0.00,,,0.00,meteohub,2013-04-03 00:30:00,
2013-04-02 20:35:00,33.6,37.2,29.94,NNW,340,8.0,13.0,48,0.00,,,0.00,meteohub,2013-04-03 00:35:00,
2013-04-02 20:40:00,33.6,37.2,29.94,NNW,337,4.0,13.0,47,0.00,,,0.00,meteohub,2013-04-03 00:40:00,
2013-04-02 20:45:00,33.8,37.2,29.94,NNW,328,2.0,13.0,47,0.00,,,0.00,meteohub,2013-04-03 00:45:00,
2013-04-02 20:50:00,33.6,37.4,29.94,WNW,296,11.0,13.0,48,0.00,,,0.00,meteohub,2013-04-03 00:50:00,
2013-04-02 20:55:00,33.6,37.4,29.94,WNW,290,5.0,12.0,48,0.00,,,0.00,meteohub,2013-04-03 00:55:00,
2013-04-02 21:00:00,33.4,37.2,29.94,NNW,347,4.0,12.0,50,0.00,,,0.00,meteohub,2013-04-03 01:00:00,
2013-04-02 21:05:00,33.4,37.2,29.95,NW,309,6.0,12.0,49,0.00,,,0.00,meteohub,2013-04-03 01:05:00,
2013-04-02 21:10:00,33.4,37.2,29.94,NNW,332,5.0,12.0,49,0.00,,,0.00,meteohub,2013-04-03 01:10:00,
2013-04-02 21:15:00,33.6,37.2,29.94,NNW,341,6.0,12.0,50,0.00,,,0.00,meteohub,2013-04-03 01:15:00,
2013-04-02 21:20:00,33.4,37.0,29.95,NNW,331,4.0,12.0,50,0.00,,,0.00,meteohub,2013-04-03 01:20:00,
2013-04-02 21:25:00,33.4,36.9,29.95,WNW,300,4.0,11.0,50,0.00,,,0.00,meteohub,2013-04-03 01:25:00,
2013-04-02 21:30:00,33.4,36.7,29.95,WNW,292,6.0,11.0,50,0.00,,,0.00,meteohub,2013-04-03 01:30:00,
2013-04-02 21:36:00,33.3,36.7,29.95,NW,320,4.0,8.0,50,0.00,,,0.00,meteohub,2013-04-03 01:36:00,
2013-04-02 21:41:00,33.3,36.5,29.95,NNE,22,5.0,8.0,51,0.00,,,0.00,meteohub,2013-04-03 01:41:00,
2013-04-02 21:46:00,33.3,36.3,29.95,NNW,333,5.0,9.0,50,0.00,,,0.00,meteohub,2013-04-03 01:46:00,
2013-04-02 21:51:00,33.3,36.3,29.95,NNW,337,6.0,10.0,50,0.00,,,0.00,meteohub,2013-04-03 01:51:00,
2013-04-02 21:56:00,33.3,36.1,29.95,NW,323,5.0,10.0,51,0.00,,,0.00,meteohub,2013-04-03 01:56:00,
2013-04-02 22:02:00,33.4,36.0,29.95,West,274,4.0,10.0,51,0.00,,,0.00,meteohub,2013-04-03 02:02:00,
2013-04-02 22:07:00,33.4,36.0,29.95,NNW,327,4.0,13.0,51,0.00,,,0.00,meteohub,2013-04-03 02:07:00,
2013-04-02 22:12:00,33.4,35.8,29.95,NNW,336,4.0,13.0,51,0.00,,,0.00,meteohub,2013-04-03 02:12:00,
2013-04-02 22:17:00,33.4,35.6,29.95,NW,316,8.0,10.0,52,0.00,,,0.00,meteohub,2013-04-03 02:17:00,
2013-04-02 22:22:00,33.4,35.6,29.95,NW,323,7.0,14.0,53,0.00,,,0.00,meteohub,2013-04-03 02:22:00,
2013-04-02 22:27:00,33.3,35.6,29.95,WNW,290,5.0,14.0,53,0.00,,,0.00,meteohub,2013-04-03 02:27:00,
2013-04-02 22:32:00,33.3,35.6,29.95,NW,318,7.0,14.0,53,0.00,,,0.00,meteohub,2013-04-03 02:32:00,
2013-04-02 22:37:00,33.3,35.4,29.94,NNW,345,0.0,13.0,53,0.00,,,0.00,meteohub,2013-04-03 02:37:00,
2013-04-02 22:42:00,33.3,35.4,29.94,North,5,3.0,13.0,53,0.00,,,0.00,meteohub,2013-04-03 02:42:00,
2013-04-02 22:47:00,33.3,35.2,29.94,WNW,295,5.0,13.0,53,0.00,,,0.00,meteohub,2013-04-03 02:47:00,
2013-04-02 22:52:00,33.3,35.2,29.95,NW,317,3.0,12.0,53,0.00,,,0.00,meteohub,2013-04-03 02:52:00,
2013-04-02 22:57:00,33.1,35.2,29.95,NW,322,4.0,9.0,53,0.00,,,0.00,meteohub,2013-04-03 02:57:00,
2013-04-02 23:02:00,33.1,35.1,29.95,West,270,4.0,12.0,52,0.00,,,0.00,meteohub,2013-04-03 03:02:00,
2013-04-02 23:07:00,33.3,35.1,29.95,NW,317,1.0,12.0,52,0.00,,,0.00,meteohub,2013-04-03 03:07:00,
2013-04-02 23:12:00,33.3,34.9,29.95,NNW,340,3.0,12.0,52,0.00,,,0.00,meteohub,2013-04-03 03:12:00,
2013-04-02 23:17:00,33.1,36.0,29.94,NE,36,5.0,11.0,53,0.00,,,0.00,meteohub,2013-04-03 03:17:00,
2013-04-02 23:26:00,33.1,36.0,29.95,NNW,346,5.0,11.0,53,0.00,,,0.00,meteohub,2013-04-03 03:26:00,
2013-04-02 23:31:00,33.3,36.0,29.95,NNW,338,6.0,11.0,53,0.00,,,0.00,meteohub,2013-04-03 03:31:00,
2013-04-02 23:37:00,33.3,35.8,29.94,NNW,337,3.0,18.0,53,0.00,,,0.00,meteohub,2013-04-03 03:37:00,
2013-04-02 23:42:00,33.3,34.7,29.95,NW,304,6.0,18.0,53,0.00,,,0.00,meteohub,2013-04-03 03:42:00,
2013-04-02 23:47:00,33.3,34.5,29.95,NNW,346,6.0,18.0,53,0.00,,,0.00,meteohub,2013-04-03 03:47:00,
2013-04-02 23:52:00,33.3,34.5,29.94,North,355,2.0,18.0,54,0.00,,,0.00,meteohub,2013-04-03 03:52:00,
2013-04-02 23:57:00,33.3,34.5,29.94,NW,315,2.0,18.0,54,0.00,,,0.00,meteohub,2013-04-03 03:57:00,